Showing default

DEKART, 46493

Orbit data source: Space-Track

DEKART, 46493 is a payload satellite owned by MGU (CIS) in SSO that was launched on Mon, 28 Sep 2020 UTC via a SOYUZ-2-1B launch vehicle from the Plesetsk Missile And Space Complex (PKMTR). Payload-class satellites include a variety of spacecraft equipped with specific instruments for various scientific and technological missions. These include communications satellites like Starlink; space stations such as the ISS; scientific satellites like the Hubble; Earth observation satellites from companies like Planet Labs, Umbra, and HawkEye 360; GPS; miniature CubeSats for education and research; and military/defense satellites.

Loading next visibility...
Identifier
46493, 2020-068H
Orbit
SSO
Last TLE update
4 hours ago
Origin
Manufacturer
MGU
Mission
Operational Amateur Science
Bus & Motor
CUBESAT 3U, Unknown motor
Mass
4 kg wet, 4 kg dry
Launch date (UTC)
2020-09-28 (5 years ago)
Launch vehicle
SOYUZ-2-1B
Launch site
Plesetsk Missile And Space Complex (PKMTR)
Object type
Payload
Rocket body
Debris
Shape & HBR
Box, Unknown HBR
Radar Cross Section
0.035 m², Medium (>0.1 m² and < 1m²)

Expand to show TLE details & history

TLE from 4 hours ago
0 DEKART
1 46493U 20068H   25129.20540426  .00012047  00000-0  46279-3 0  9999
2 46493  97.8558 108.5944 0009346 267.0580  92.9588 15.26568110253939
Epoch: 2025-05-09T04:55Z
Definitive object data (Epoch: 2025-05-09T04:55:46.928Z)
Latitude
0.00002°
Longitude
167.38398°
Altitude
489.504 km
Speed
7.62 km/s
True Right ascension
07h 14m 22s
True Declination
0° 00' 00"
Sunlit
Object was in daylight at TLE epoch
Visualization TLE readout
Latitude
-57.8283°
Longitude
-25.03192°
Altitude
502.81 km
Speed
7.615 km/s
Apparent Right ascension
02h 44m 59s
Apparent Declination
-79° 53' 57"
Sunlit
Object is in full shadow
Visualization observer readout
Local Sidereal Time
17:16:22
Azimuth
170.826° S
Elevation
-47.557°
Doppler factor
1
Orbital elements
Apogee altitude
489.47 km
Perigee altitude
476.645 km
Semi-major axis
6,861.195 km
Eccentricity
0.0009346
Inclination
97.8558°
RAAN
108.5944°
Arg. of periapsis
267.058°
True anomaly
93.06575°
Mean anomaly
92.9588°
Eccentric anomaly
93.01227°
Mean motion
3.81895 °/min
BSTAR
0.00046279
Orbital period
94.27 mins
Loading maneuver chart data...
Loading SW <> Apogee altitude chart data...
Loading historical data...
Loading historical data...
Loading historical data...
Loading historical data...
Loading historical data...
Loading historical data...
Loading historical data...

DEKART Visibility forecast

Observer location: undefined°, undefined°

Span
Click to sort rows by Start time (UTC) header in descending order
Start Az.
Max El. time (UTC)
Max El. Az.
Max El.
End time (UTC)
End Az.
6 mins2025-05-09 11:47:05.574Z357.831° N2025-05-09 11:50:05.574Z263.724° W36.796°2025-05-09 11:53:05.574Z210.352° SW
5 mins2025-05-09 22:23:05.574Z141.591° SSE2025-05-09 22:25:05.574Z52.503° ENE38.752°2025-05-09 22:28:05.574Z357.277° N
|